Погода в Притобольном

Россия / Курганская область     54°36′46″N   65°09′02″E
темп.,
°C
ветер,
м/с
пор.,
м/с
влажн.,
%
обл.,
%
осадки,
мм/ч
давл.,
гПа
погр.,
м
8 марта, пн
пн823:00−9сз61094100 1.8 1002440
02:00−12сз5119599 0.1 1006299
05:00−14зсз499697 0.2 1010209
08:00−19з459854 0.0 101273
11:00−16зюз479253 0.0 1013230
14:00−12ююз61185100 0.0 1013451
17:00−10ююз71489100 0.0 1012616
20:00−9юз81692100 0.3 1011752
9 марта, вт
вт923:00−7юз91691100 0.5 1011757
02:00−7юз81689100 0.1 1011634
05:00−7ююз81591100 0.1 1012581
08:00−8ююз91593100 0.4 1011591
11:00−8ююз91590100 0.6 1010641
14:00−6юз91490100 0.1 1010752
17:00−5юз91490100 0.2 1010845
20:00−7юз61291100 0.0 1012307
10 марта, ср
ср1023:00−10юз3495100 0.0 101346
02:00−10ююз2292100 0.0 101221
05:00−10юв2292100 0.0 101021
08:00−10вюв3594100 0.0 1008101
11:00−7вюв3594100 0.0 1006253
14:00−5вюв3494100 0.3 1003331
17:00−5вюв4696100 1.3 1001399
20:00−5вюв5896100 1.1 1000322
11 марта, чт
чт1123:00−7юз71194100 2.2 1000484
02:00−13ююз5139267 0.3 999285
05:00−14ююз5119462 0.3 1000303
08:00−15ю3896100 0.1 1001301
11:00−13зсз238998 0.2 1003428
14:00−12ссз6791100 0.1 1006635
17:00−14сз6992100 0.3 1009712
20:00−19зсз499292 0.1 1013186
12 марта, пт
пт1223:00−21з449563 0.1 101679
02:00−20зюз489896 0.1 1017176
05:00−22зюз479795 0.1 1018115
08:00−22зюз599484 0.0 1020190
11:00−17зюз699276 0.0 1021333
14:00−14зюз589295 0.0 1022487
17:00−14зюз489297 0.1 1022374
20:00−17зюз449677 0.0 102455